Gold Country Challenge - Physical Inventory - All Birds

Station: Loft Fly Inventory - T Race

Distance: 10 Miles

Release: 01-Jul-2019 08:30

Weather Release:    Arrival:

Wind at Release:     Wind at Arrival:

Temp at Release: °    Temp at Arrival: °

Lofts: 114

Birds: 543

Clocked: 481

ARPU 29736, BIE 9091, FOYS 1234,AUB 905 Did Not Upload plus 1 Bird Out.
Drops Pos Breeder Pigeon Name Color Sex Ent Arrival Speed To Win Eligible Champ
1 Baldwin & Tilson - NC 9001-AU19-TENT KW-362 BB H 1 09:14:10.80 398.370 00:00:00 Yes
2 Na Hoa - HI 0907-AU19-AUB BB H 1 09:16:34.00 377.953 00:02:23 Yes
3 Baldwin & Tilson - NC 9050-AU19-TENT JACOB-961 BB H 2 09:16:55.60 375.053 00:02:45 Yes
4 P N W Challenge - ID 0503-AU19-IDA BB H 1 09:17:15.40 372.434 00:03:05 Yes
5 Cuevas Classic - TX 3916-AU19-DALL BC H 1 09:17:53.50 367.496 00:03:43 Yes
6 Stark Loft - CA 0012-AU19-HANG RC C 1 09:18:32.40 362.588 00:04:22 Yes
7 Apr Loft - CA 4680-AU19-JEDD BC H 1 09:18:57.60 359.477 00:04:47 Yes
8 Baldwin & Tilson - NC 9041-AU19-TENT 8109-8163 BC H 3 09:22:05.60 337.855 00:07:55 Yes
9 Lopez / Saenz - CA 9068-AU19-CGR BB H 1 09:22:28.00 335.451 00:08:17 Yes
10 A P C Loft - TX 19041-AU19-APC BBSP H 1 09:22:53.00 332.808 00:08:42 Yes
11 John Hedderson - CA 7605-AU19-FORT BB H 1 09:23:11.60 330.869 00:09:01 Yes
12 A-Lo-Loft - NY 2829-AU19-FOYS ☯️73☯️ BB H 1 09:23:29.10 329.064 00:09:18 Yes
13 King Conch Loft - ON 0114-CU19-KCL BC H 1 09:23:52.60 326.672 00:09:42 Yes
14 A F L - GA 0074-IF19-AFL BB C 1 09:24:25.10 323.420 00:10:14 Yes
15 Mels Loft - NY 0009-IF19-MTFL PIED H 1 09:24:46.20 321.344 00:10:35 Yes
16 4 Son's Loft - CA 0007-AU19-HANG PDBC H 1 09:25:09.60 319.072 00:10:59 Yes
17 Baglady Loft - CA 0306-AU19-AUB BB H 1 09:25:38.40 316.319 00:11:28 Yes
18 Lopez / Saenz / De La O - CA 9051-AU19-COOK BB H 1 09:25:55.90 314.670 00:11:45 Yes
19 Racing Pigeon Mall - WA 0905-AU19-RPM BLK H 1 09:26:22.30 312.214 00:12:11 Yes
20 G & L Loft - OR 0533-AU19-WPC BB C 1 09:26:48.10 309.850 00:12:37 Yes
21 ** J-Ireneo Loft ** - CA 6003-AU19-CIRP BB H 1 09:27:08.30 308.024 00:12:58 Yes
22 Sierra Ranch - CA 0963-AU19-SR BB H 1 09:27:27.00 306.353 00:13:16 Yes
23 Lopez / Saenz - CA 0869-AU19-TCH BBWF H 2 09:28:00.30 303.422 00:13:49 Yes
24 Emmalyn & Carelyn Loft - CA 0008-AU19-CEYX BB H 1 09:28:36.90 300.264 00:14:26 Yes
25 Jimmy Zheng Loft - MS 0978-AU19-JZL BB H 1 09:29:10.40 297.431 00:15:00 Yes
26 Na Hoa - HI 0821-AU19-KAU "Hio" BB C 2 09:29:29.90 295.807 00:15:19 Yes
27 Bernardo Ibanez - CA 29389-AU19-ARPU BB H 1 09:29:58.80 293.431 00:15:48 Yes
28 Irishsyndicatelofts - AZ 0793-IF19-IRIS BB H 1 09:30:34.40 290.557 00:16:24 Yes
29 John Gutierrez - NM 0938-AU19-GUTZ PIED H 1 09:30:53.00 289.077 00:16:42 Yes
30 P N W Challenge - ID 0012-AU19-PNWC BBWF H 2 09:33:02.70 279.166 00:18:52 Yes
31 H & H Flying Circus - CA 0282-AU19-ML BC H 1 09:38:40.50 256.280 00:24:30 Yes
32 Mile High - CO 9008-AU19-BIE BB H 1 09:39:09.40 254.495 00:24:59 Yes
33 Duane Gragg - CA 0971-AU19-KEYH PIED H 1 09:40:04.80 251.142 00:25:54 Yes
34 John Gutierrez - NM 0940-AU19-GUTZ BBWF H 2 09:40:24.50 249.970 00:26:14 Yes
35 P N W Challenge - ID 1914-AU19-PAPA BC H 3 09:41:01.10 247.823 00:26:50 Yes
36 Avalos Lofts - CA 1151-AU19-TULE BB H 1 09:41:30.60 246.119 00:27:20 Yes
37 John Gutierrez - NM 0901-AU19-GUTZ BBWF H 3 09:41:50.50 244.983 00:27:40 Yes
38 Wing-N-It Loft - WA 0481-AU19-TAC BB H 1 09:42:13.60 243.677 00:28:03 Yes
39 Nemelka Racing Pigeon Loft - UT 9086-AU19-NRPL Winkie BB H 1 09:42:47.50 241.786 00:28:37 Yes
40 D B Loft - CA 4511-AU19-JEDD WIND JAMMER BB H 1 09:43:21.50 239.918 00:29:11 Yes
41 A-Lo-Loft - NY 2832-AU19-FOYS ☯️3958☯️ BC H 2 09:43:46.20 238.579 00:29:35 Yes
42 Poorhouse Road Loft - VA 29739-AU19-ARPU DG BB H 1 09:44:05.70 237.533 00:29:55 Yes
43 P N W Challenge - ID 0515-AU19-IDA BB H 4 09:44:38.70 235.783 00:30:28 Yes
44 Irishsyndicatelofts - AZ 0410-IF19-IRIS BB H 2 09:45:06.00 234.354 00:30:55 Yes
45 Bieu Tran - CA 0004-AU19-TRAN MLY C 1 09:46:03.20 231.417 00:31:52 Yes
46 J S R Loft - UT 0056-AU19-JSRL BB H 1 09:46:31.50 229.990 00:32:21 Yes
47 Dan & Greg Coury - AZ 0471-AU19-AONE 1707+Mex "Solid Pick" DC H 1 09:46:56.60 228.740 00:32:46 Yes
48 Jactions Loft - CA 0812-AU19-AA RC H 1 09:47:30.30 227.082 00:33:20 Yes
49 Fleet Washington - DC 1911-AU19-FLET BC H 1 09:47:54.50 225.907 00:33:44 Yes
50 Tian Loft - FL 15632-AU19-ARPU BB H 1 09:48:24.80 224.452 00:34:14 Yes
51 Schmueckle Loft - TX 1056-AU19-SAL BB H 1 09:48:45.50 223.468 00:34:35 Yes
52 Sooner Challenge - OK 8514-AU19-TIPC 5635 x 91726D165E BB H 1 09:49:09.60 222.335 00:34:59 Yes
53 Da-Dong - WI 1681-AU19-RAC 8057-2782 BC H 1 09:49:36.70 221.073 00:35:26 Yes
54 Cala's - NY 0115-AU19-CALA DC H 1 09:50:13.00 219.406 00:36:02 Yes
55 Schmueckle Loft - TX 1065-AU19-SAL RC H 2 09:50:40.40 218.164 00:36:30 Yes
56 Stone Loft - NC 29110-AU19-FOYS BB H 1 09:51:13.80 216.669 00:37:03 Yes
57 House Of Paine - CA 0425-AU19-HOP BC H 1 09:51:50.50 215.049 00:37:40 Yes
58 Denis Eastwood - CA 0119-AU19-HANG BB H 1 09:52:27.60 213.437 00:38:17 Yes
59 Genesis Syndicate Loft - AZ 0050-AU19-GENP BCSP H 1 09:52:55.70 212.231 00:38:45 Yes
60 Jimmy Zheng Loft - MS 0951-AU19-JZL BBSP H 2 09:53:35.60 210.543 00:39:25 Yes
61 Peters - GA 0021-AU19-PETE PETERS - 6 DC H 1 09:54:16.00 208.861 00:40:05 Yes
62 A P C Loft - TX 19037-AU19-APC BB H 2 09:54:46.00 207.629 00:40:35 Yes
63 Marengo Creek Farms - AL 3226-AU19-MCF BB H 1 09:55:13.30 206.520 00:41:03 Yes
64 A P C Loft - TX 19112-AU19-APC BC H 3 09:55:45.50 205.228 00:41:35 Yes
65 Jactions Loft - CA 0819-AU19-AA BBSP H 2 09:56:34.50 203.292 00:42:24 Yes
66 Nemelka Racing Pigeon Loft - UT 9005-AU19-NRPL Bubbles BC H 2 10:09:13.90 177.363 00:55:03 Yes
67 Aimhigh Loft - CA 2913-AU19-AA AIM*0783-0806*** BCSP H 1 10:09:48.90 176.326 00:55:38 Yes
68 G & L Loft - OR 0516-AU19-WPC BC C 2 10:10:22.20 175.351 00:56:11 Yes
69 Jimmy Zheng Loft - MS 0965-AU19-JZL BB H 3 10:10:44.90 174.693 00:56:34 Yes
70 Tarheel Syndicate - NC 9260-IF19-TRC BBWF H 1 10:11:08.00 174.028 00:56:57 Yes
71 Elton Dinga - TX 16152-AU19-AA Bolt 223 x Purdey 12005 BB C 1 10:11:38.10 173.169 00:57:27 Yes
72 White Arrow Loft - IL 15806-AU19-AA MLYS H 1 10:12:03.10 172.462 00:57:52 Yes
73 Marty Hansen - CA 2104-AU19-LAKE BB H 1 10:12:29.30 171.727 00:58:18 Yes
74 Baglady Loft - CA 0304-AU19-AUB BB H 2 10:12:59.50 170.888 00:58:49 Yes
75 Sandstrom Brothers Loft - MN 0033-AU19-SBL BBWF H 1 10:13:34.10 169.936 00:59:23 Yes
76 Da-Dong - WI 1700-AU19-RAC 8057-2782 BC H 2 10:14:04.20 169.117 00:59:53 Yes
77 J & J Loft Of Tx. - TX 1607-AU19-WACO 284 x 341 BB H 1 10:14:24.90 168.558 01:00:14 Yes
78 Da-Dong - WI 1685-AU19-RAC 7020-845 BB H 3 10:14:53.40 167.795 01:00:43 Yes
79 Fleet Washington - DC 1914-AU19-FLET BB H 2 10:15:21.80 167.041 01:01:11 Yes
80 Marengo Creek Farms - AL 3227-AU19-MCF BBWF H 2 10:15:54.40 166.184 01:01:44 Yes
81 Shi Loft - PA 7067-IF19-ERIE BB H 1 10:17:15.90 164.080 01:03:05 Yes
82 G & L Loft - OR 0524-AU19-WPC DCSP H 3 10:18:00.30 162.955 01:03:50 Yes
83 Cuevas Classic - TX 3924-AU19-DALL BC H 2 10:18:28.20 162.257 01:04:17 Yes
84 Crazy Als Lofts - CO 5519-AU19-CRAZ DC H 1 10:18:55.60 161.577 01:04:45 Yes
85 Frank Gonsalves - CA 0259-AU19-AA BB H 1 10:19:31.70 160.689 01:05:21 Yes
86 Peanut, Butter And Jelly Syndicate - CA 0101-AU19-BIGG BC H 1 10:19:56.00 160.097 01:05:45 Yes
87 G & L Loft - OR 0536-AU19-WPC BC H 4 10:20:17.50 159.577 01:06:07 Yes
88 Fleet Washington - DC 1900-AU19-FLET BC H 3 10:20:50.30 158.790 01:06:39 Yes
89 Peters - GA 0014-AU19-PETE PETERS - 3 BB H 2 10:21:34.20 157.748 01:07:23 Yes
90 Na Hoa - HI 0811-AU19-KAU "Hanapaa" BC C 3 10:22:10.70 156.893 01:08:00 Yes
91 Skychargers - CA 0275-AU19-CORO BKWF H 1 10:22:42.70 156.151 01:08:32 Yes
92 Jactions Loft - CA 0821-AU19-AA BB H 3 10:23:05.00 155.637 01:08:54 Yes
93 Peanut, Butter And Jelly Syndicate - CA 4932-AU19-RR Kayla BB H 2 10:23:40.50 154.827 01:09:30 Yes
94 Jim Lauritzen - CA 0413-AU19-EAV BBWF H 1 10:24:26.00 153.801 01:10:15 Yes
95 Sierra Ranch - CA 0976-AU19-SR BB H 2 10:25:02.10 152.997 01:10:51 Yes
96 Bob Bostwick - CA 0930-AU19-COCO BB H 1 10:25:53.10 151.875 01:11:42 Yes
97 Ringor Loft - CA 4692-AU19-JEDD DCPD H 1 10:26:21.90 151.248 01:12:11 Yes
98 Perfection Loft - KS 7100-AU19-AA BBWF H 1 10:26:44.30 150.765 01:12:33 Yes
99 Elton Dinga - TX 16162-AU19-AA Olympiad 03 x (820 x 404) BB H 2 10:27:14.60 150.115 01:13:04 Yes
100 King Conch Loft - ON 0115-CU19-KCL BB H 2 10:27:47.80 149.410 01:13:37 Yes

There are 477 bird records

Note: These Race Results are unofficial and subject to change until verified by the Race Committee and declared final.